Tracking 18987 objects as of 25-Feb-2018
HD Live streaming from Space Station
objects crossing your sky now

NOAA 16 DEB

Track NOAA 16 DEB now!
10-day predictions


NORAD ID: 41128
Int'l Code: 2000-055BK
Perigee: 846.1 km
Apogee: 864.4 km
Inclination: 99.0 °
Period: 101.9 minutes
Semi major axis: 7226 km
RCS: Unknown
Launch date: September 21, 2000
Source: United States (US)
Launch site: AIR FORCE WESTERN TEST RANGE (AFWTR)

Note: This is SATELLITE DEBRIS
aabbcc
Your satellite tracking list
Your tracking list is empty




NASA's NSSDC Master Catalog

Two Line Element Set (TLE):
1 41128U 00055BK  18055.10557485 +.00001317 +00000-0 +72613-3 0  9994
2 41128 099.0405 143.3854 0012630 193.2009 166.8833 14.13291222114759
Source of the keplerian elements: AFSPC